NOAA 16 DEB, 41256

Orbit data source: Space-Track

NOAA 16 DEB, 41256 is space debris in LEO originally from a launch on Thu, 21 Sep 2000 UTC launched from the Air Force Western Test Range (AFWTR). Debris objects in space refer to the collection of defunct objects orbiting the Earth. Examples of debris include non-operational satellites, rocket bodies, and fragments generated from explosions, collisions, or faulty payload assembly.

Loading next visibility...
NOAA 16 DEB details
Identifier
41256, 2000-055FG
Orbit
LEO
Last TLE update1 day ago
Origin
Flag of USNOAA (US)
ManufacturerUnknown
MissionSpacecraft
Bus & MotorUnknown
MassUnknown
Launch date (UTC)
2000-09-21 (24 years ago)
Launch vehicleUnknown
Launch site
Air Force Western Test Range (AFWTR)
Object type
Payload
Rocket body
Debris
Shape & HBRUnknown
Radar Cross SectionSmall (<0.1 m²)

Expand to show TLE details & history

TLE from 1 day ago
0 NOAA 16 DEB
1 41256U 00055FG  24338.38920184  .00023101  00000-0  70826-2 0  9995
2 41256  99.1012 191.3366 0020013  22.2851 337.9201 14.41538282462888
Epoch: 2024-12-03T09:20Z
Definitive object data (Epoch: 2024-12-03T09:20:27.038Z)
Latitude-0.0001°
Longitude-21.47545°
Altitude743.127 km
Speed7.49 km/s
True Right ascension12h 45m 20s
True Declination0° 00' 00"
Sunlit
Object was in daylight at TLE epoch
Visualization TLE readout
Latitude-18.86806°
Longitude156.47824°
Altitude774.778 km
Speed7.458 km/s
Apparent Right ascension22h 32m 15s
Apparent Declination-34° 40' 53"
Sunlit
Object is in daylight
Visualization observer readout
Local Sidereal Time07:29:11
Azimuth263.385° W
Elevation-53.62°
Doppler factor1
Orbital elements
Apogee altitude764.836 km
Perigee altitude736.303 km
Semi-major axis7,128.707 km
Eccentricity0.0020013
Inclination99.1012°
RAAN191.3366°
Arg. of periapsis22.2851°
True anomaly337.83369°
Mean anomaly337.9201°
Eccentric anomaly337.87692°
Mean motion3.60601 °/min
BSTAR0.0070826
Orbital period99.83 mins
Loading maneuver chart data...
Loading historical data...
Loading historical data...
Loading historical data...
Loading historical data...
Loading historical data...
Loading historical data...
Loading historical data...

NOAA 16 DEB Visibility forecast

Observer location: undefined°, undefined

Span
Click to sort rows by Start time (UTC) header in descending order
Start Az.
Max El. time (UTC)
Max El. Az.
Max El.
End time (UTC)
End Az.
8 mins2024-12-04 13:46:53.526Z138.634° SSE2024-12-04 13:50:53.526Z82.513° E33.522°2024-12-04 13:54:53.526Z4.989° NNE
5 mins2024-12-04 15:27:53.526Z231.97° WSW2024-12-04 15:29:53.526Z261.922° W19.222°2024-12-04 15:32:53.526Z305.484° NW
8 mins2024-12-05 03:33:53.526Z7.239° NNE2024-12-05 03:37:53.526Z258.318° W42.922°2024-12-05 03:41:53.526Z204.72° SW
|